Weather in Semigorsk

Russia / Irkutsk Oblast     56°40′31″N   104°38′31″E
temp.,
°C
wind,
m/s
gust,
m/s
humid.,
%
clouds,
%
prec.,
mm/h
press.,
hPa
HPBL,
m
12 may, wed
wed1223:00+2n3897100 0.4 1017452
02:000nne2796100 0.8 1018421
05:00−3n249776 0.1 1018103
08:00+1nne35768 0.1 1018664
11:00+3n4556100 0.2 10171409
14:00+5n4547100 0.7 10161995
17:00+5n454394 0.5 10161799
20:00+3nnw375579 0.5 1017522
13 may, thu
thu1323:00−2n11815 0.0 101911
02:00−3nnw118666 0.0 101912
05:00−4nnw118963 0.0 102020
08:00+1nnw257565 0.3 1019402
11:00+4nne465797 0.1 10191344
14:00+7nne3543100 0.1 10181864
17:00+8ne353946 0.0 10171780
20:00+6n11535 0.0 101710
14 may, fri
fri1423:00+1sw00675 0.0 101810
02:00−1ssw11740 0.0 101910
05:00−1ssw11760 0.0 101910
08:00+7ssw11475 0.0 1018265
11:00+12s22325 0.0 10151554
14:00+15ssw242618 0.0 10122237
17:00+15sw452558 0.0 10092291
20:00+11ssw224377 0.0 100917
15 may, sat
sat1523:00+6s225867 0.0 101020
02:00+4s3136467 0.0 1009271
05:00+5wsw41087100 0.5 1010917
08:00+4wnw61194100 1.4 1012982
11:00+7w61053100 0.3 10131755
14:00+8w71044100 0.3 10122028
17:00+7wsw71160100 0.1 10111548
20:00+3wsw61296100 0.7 1012937
16 may, sun
sun1623:00+3w51197100 0.9 10121260
02:00+3wnw4886100 1.7 1013894
05:00+2wsw1696100 0.2 1014371
08:00+1s1299100 3.7 1013129
11:00+3sse1398100 1.9 1012273
14:00+4sse2496100 1.9 1011365
17:00+4sse1598100 0.2 1009243
20:00+5sse2499100 4.4 1006113